DELTA 1 DEB, 10751

Orbit data source: Space-Track

DELTA 1 DEB, 10751 is space debris in LEO originally from a launch on Thu, 29 Jul 1976 UTC launched from the Air Force Western Test Range (AFWTR). Debris objects in space refer to the collection of defunct objects orbiting the Earth. Examples of debris include non-operational satellites, rocket bodies, and fragments generated from explosions, collisions, or faulty payload assembly.

Loading next visibility...
Identifier
10751, 1976-077AY
Orbit
LEO
Country
Flag of USUS
Related business
Manufacturer
Unknown
Mission
Spacecraft
Bus & Motor
Unknown
Mass
Unknown
Launch date (UTC)
1976-07-29 (50 years ago)
Launch vehicle
Unknown
Launch site
Air Force Western Test Range (AFWTR)
Object type
Payload
Rocket body
Debris
Shape & HBR
Unknown shape, 1.1 m
Radar Cross Section
Medium (>0.1 m² and <1 m²)

Expand to show TLE details & history
Last TLE update: 11 hours ago

TLE from 11 hours ago
0 DELTA 1 DEB
1 10751U 76077AY  26104.41847314  .00000411  00000-0  59043-2 0  9995
2 10751 102.0804  92.7376 0614689 114.0160  39.0882 11.55537784 89465
Epoch: 2026-04-14T10:02Z
TLE epoch observation values (Epoch: 2026-04-14T10:02:36.079Z)
Latitude
21.67732°
Longitude
-75.65167°
Altitude
1,507.489 km
Speed
7.275 km/s
True Right ascension
18h 30m 22s
True Declination
21° 34' 15"
Sunlit
Object was in daylight at epoch
Visualization orbit readout
Latitude
Unknown
Longitude
Unknown
Altitude
Unknown
Speed
Unknown
Apparent Right ascension
Unknown
Apparent Declination
Unknown
Sunlit
N/A
Visualization observer readout
Local Sidereal Time
03:35:04
Azimuth
Unknown
Elevation
Unknown
Doppler factor
Unknown
Orbital elements
Apogee altitude
2,391.824 km
Perigee altitude
1,376.099 km
Semi-major axis
8,262.098 km
Eccentricity
0.06147
Inclination
102.0804°
RAAN
92.7376°
Arg. of periapsis
114.016°
True anomaly
43.80496°
Mean anomaly
39.0882°
Eccentric anomaly
41.41812°
Mean motion
2.89007 °/min
Orbital period
124.56 mins
BSTAR
0.0059043
Loading maneuver chart data...
Computing Atmospheric mass density...
Loading historical data...
Loading historical data...
Loading historical data...
Loading historical data...
Loading historical data...
Loading historical data...
Loading historical data...

Documentation

Showing up to 5 results
|